#timestamp,LO_Frequency,Hit,StdDev 
1510329615.6,286047003.7,N
1510329635.5,286047003.2,N
1510329655.3,286047000.3,N
1510329675.1,286047004.4,N
1510329695.8,286047001.8,N
1510329715.7,286046999.9,N
1510329735.5,286046997.3,N
1510329755.3,286047002.3,N
1510329775.2,286047000.7,N
1510329795.0,286046998.2,N
1510329795.9,286046998.2,N
1510329815.7,286046998.5,N
1510329835.6,286047000.9,N
1510329855.4,286046999.0,N
1510329875.2,286046999.0,N
1510329895.1,286046997.7,N
1510329896.0,286046997.7,N
1510329915.8,286046994.0,N
1510329935.6,286046995.6,N
1510329955.5,286046994.2,N
1510329975.3,286046994.7,N
1510329995.1,286046991.7,N
1510330015.9,286046990.8,N
1510330035.7,286046988.6,Y
1510330055.5,286046991.3,P
1510330075.4,286046990.3,N
1510330095.2,286046991.6,N
1510330115.0,286046993.0,N
1510330115.9,286046993.0,N
1510330135.8,286046992.3,N
1510330155.6,286046992.5,N
1510330175.4,286046991.8,Y
1510330195.3,286046998.8,P
1510330215.1,286047005.4,N
1510330216.0,286047005.4,N
1510330235.8,286047008.6,N
1510330255.6,286047004.9,N
1510330275.5,286047002.9,N
1510330295.3,286047004.6,N
1510330315.1,286047001.4,N
1510330335.9,286047000.0,N
1510330355.7,286046998.3,N
1510330375.5,286046997.4,N
1510330395.4,286046996.6,N
1510330415.2,286046996.9,N
1510330435.0,286046999.2,N
1510330435.9,286046999.2,N
1510330455.8,286047001.3,N
1510330475.6,286047008.4,N
1510330495.4,286047014.8,Y
1510330515.3,286047015.4,P
1510330535.1,286047014.8,N
1510330536.0,286047014.8,N
1510330555.8,286047018.3,Y
1510330575.7,286047008.8,P
1510330595.5,286047006.0,P
1510330615.3,286047004.5,N
1510330635.2,286047003.7,N
1510330655.9,286047002.8,N
1510330675.7,286046999.2,N
1510330695.6,286046997.1,N
1510330715.4,286046995.7,N
1510330735.2,286046993.4,N
1510330755.0,286046993.0,N
1510330755.9,286046993.0,N
1510330775.8,286046988.9,N
1510330795.6,286046986.4,N
1510330815.4,286046987.2,N
1510330835.3,286046988.4,N
1510330855.1,286046987.3,N
1510330875.8,286046992.2,N
1510330895.7,286046991.9,N
1510330915.5,286046988.6,N
1510330935.3,286046992.2,N
1510330955.2,286046997.7,N
1510330975.9,286047003.1,N
1510330995.7,286047004.6,N
1510331015.5,286047002.9,N
1510331035.4,286047003.8,N
1510331055.2,286046999.8,N
1510331075.0,286047006.7,N
1510331075.9,286047006.7,N
1510331095.8,286047005.3,N
1510331115.6,286047006.2,N
1510331135.4,286047007.2,N
1510331155.3,286047006.9,N
1510331175.1,286047009.2,N
1510331176.0,286047009.2,N
1510331195.8,286047001.4,N
1510331215.7,286047004.1,N
1510331235.5,286047007.5,N
1510331255.3,286047007.8,N
1510331275.2,286047009.3,N
1510331295.9,286047009.0,N
1510331315.7,286047006.1,N
1510331335.6,286047011.5,N
1510331355.4,286047008.5,N
1510331375.2,286047004.7,N
1510331395.0,286047006.0,N
1510331395.9,286047006.0,N
1510331415.8,286047002.4,N
1510331435.6,286046998.5,N
1510331455.4,286046996.0,N
1510331475.3,286046990.5,N
1510331495.1,286046991.8,N
1510331515.8,286046995.5,N
1510331535.7,286046995.8,N
1510331555.5,286046997.2,N
1510331575.3,286046994.5,N
1510331595.2,286046990.3,N
1510331615.9,286046988.6,N
1510331635.7,286046994.7,N
1510331655.6,286046999.3,N
1510331675.4,286047001.1,N
1510331695.2,286047004.1,N
1510331715.0,286047004.3,N
1510331715.9,286047004.3,N
1510331735.8,286047009.2,N
1510331755.6,286047013.6,N
1510331775.4,286047014.8,N
1510331795.3,286047014.5,N
1510331815.1,286047016.5,N
1510331835.8,286047020.2,N
1510331855.7,286047021.7,N
1510331875.5,286047022.0,N
1510331895.3,286047019.7,N
1510331915.2,286047017.2,N
1510331935.9,286047013.8,N
1510331955.7,286047010.6,N
1510331975.6,286047004.5,N
1510331995.4,286047001.4,N
1510332015.2,286047002.0,N
1510332035.0,286047004.0,N
1510332036.0,286047004.0,N
1510332055.8,286047000.0,N
1510332075.6,286046996.9,N
1510332095.4,286046995.6,N
1510332115.3,286046998.2,N
1510332135.1,286047003.1,N
1510332155.8,286047001.6,N
1510332175.7,286047003.8,N
1510332195.5,286047003.9,N
1510332215.3,286047000.8,N
1510332235.2,286046995.7,N
1510332255.9,286046994.5,N
1510332275.7,286046992.4,N
1510332295.6,286046994.0,N
1510332315.4,286046991.0,N
1510332335.2,286046992.4,N
1510332355.0,286046994.8,N
1510332356.0,286046994.8,N
1510332375.8,286046991.8,N
1510332395.6,286046991.5,N
1510332415.4,286046986.2,N
1510332435.3,286046983.7,N
1510332455.1,286046988.1,N
1510332475.8,286046989.3,N
1510332495.7,286046990.8,N
1510332515.5,286046995.7,N
1510332535.3,286046997.8,N
1510332555.2,286047000.3,N
1510332575.9,286047005.7,N
1510332595.7,286047004.9,N
1510332615.6,286047008.5,N
1510332635.4,286047007.8,N
1510332655.2,286047010.9,N
1510332675.0,286047013.5,N
1510332676.0,286047013.5,N
1510332695.8,286047017.2,N
1510332715.6,286047016.1,N
1510332735.4,286047011.4,N
1510332755.3,286047013.6,N
1510332775.1,286047006.6,N
1510332795.8,286047005.2,N
1510332815.7,286047000.3,N
1510332835.5,286046999.6,N
1510332855.3,286046998.4,N
1510332875.2,286046993.6,N
1510332895.9,286046994.3,N
1510332915.7,286046995.5,N
1510332935.6,286046991.9,N
1510332955.4,286046990.9,N
1510332975.2,286046992.8,N
1510332995.1,286046998.5,N
1510332996.0,286046998.5,N
1510333015.8,286047000.1,N
1510333035.6,286046998.4,N
1510333055.4,286046998.0,N
1510333075.3,286046995.9,N
1510333095.1,286046999.7,N
1510333115.8,286046998.1,N
1510333135.7,286047000.8,N
1510333155.5,286046998.3,N
1510333175.3,286047002.6,N
1510333195.2,286046998.2,N
